Location: *
(50.3440°N, 18.6237°E)
Time: 17:28:06
(UTC+00:00)

Cosmos 2219 Rocket - Pass Details

Date: 30 November 2020
Orbit: 829 x 845 km, 71.0° (Epoch: 17 January)

Event Time Altitude Azimuth Distance (km) Brightness Sun altitude
Rises 15:56:45 0° 249° (WSW) 3,389 7.6 -10.9°
Reaches altitude 10° 15:59:37 10° 262° (W) 2,455 6.0 -11.3°
Maximum altitude 16:04:16 26° 318° (NW) 1,603 3.9 -12.0°
Drops below altitude 10° 16:08:56 10° 14° (NNE) 2,456 4.3 -12.7°
Enters shadow 16:10:30 - 22° (NNE) 2,952 4.6 -12.9°
